Weather in Diekirch

Luxembourg     49°48′16″N   6°25′46″E
temp.,
°C
wind,
m/s
gust,
m/s
humid.,
%
clouds,
%
prec.,
mm/h
press.,
hPa
HPBL,
m
10 august, wed
wed1023:00+18nne33520 0.0 102437
02:00+15ne35625 0.0 102587
05:00+14nne33700 0.0 102445
08:00+17ne24553 0.0 1025136
11:00+27ene45294 0.0 10241373
14:00+29e562495 0.0 10222325
17:00+30e66215 0.0 10202524
20:00+27ese47250 0.0 1020416
11 august, thu
thu1123:00+18ne22430 0.0 102213
02:00+16ne22515 0.0 102117
05:00+14ne22550 0.0 102216
08:00+17nne23460 0.0 1022111
11:00+27e57265 0.0 10211670
14:00+30e67195 0.0 10192281
17:00+31e67175 0.0 10182399
20:00+28e4822100 0.0 1018319
12 august, fri
fri1223:00+19ne2238100 0.0 101913
02:00+17ne22465 0.0 101914
05:00+15ne22491 0.0 101918
08:00+19ne23404 0.0 1019104
11:00+28ene45235 0.0 10181476
14:00+31e55195 0.0 10162429
17:00+32e55183 0.0 10152764
20:00+28ese47240 0.0 1015309
13 august, sat
sat1323:00+19ne22400 0.0 101611
02:00+16ne22460 0.0 101611
05:00+14ne22525 0.0 101713
08:00+18ne22436 0.0 101891
11:00+27e44264 0.0 10171554
14:00+30e442110 0.0 10172185
17:00+31e441948 0.0 10162422
20:00+27ese342689 0.0 101689
14 august, sun
sun1423:00+20e224052 0.0 101711
02:00+17nne22480 0.0 101711
05:00+15ne22525 0.0 101613
08:00+18ene2242100 0.0 101680
11:00+28se242370 0.0 1015911
14:00+32se441774 0.0 10132733
17:00+33ese4316100 0.0 10113065
20:00+29ese3624100 0.0 1010115